Temperature
23 22 21 21 21 20 20 20 20 20 20 19 19 19 19 19 19 18 18 18 18 18 18 18 18 18 18 18 18 18 18 18 18 18 19 19 19 18 18 18 18 18 18
23 22 21 21 21 20 20 20 20 20 20 19 19 19 19 19 19 19 18 18 18 18 18 18 18 18 18 18 18 18 18 18 18 18 19 19 19 18 19 18 18 18 18
23 22 22 21 21 20 20 20 20 20 20 19 19 19 19 19 19 19 18 18 18 18 18 18 18 18 18 18 18 18 18 18 18 18 19 20 20 20 19 18 18 18 18
24 23 22 21 21 20 20 20 20 20 20 20 19 19 19 19 19 19 18 18 18 18 18 18 18 18 18 18 18 18 18 18 18 18 18 18 19 19 19 19 18 18 18
24 23 22 21 21 20 20 20 20 20 20 20 19 19 19 18 18 18 18 18 18 18 18 18 18 18 18 18 18 18 18 18 18 18 18 18 18 18 19 19 18 18 18
23 23 22 21 21 20 20 20 20 20 20 19 19 19 18 18 18 18 18 18 18 18 18 18 18 18 18 18 18 18 18 18 18 18 18 18 18 19 19 19 18 18 18
23 22 22 21 21 20 20 20 20 20 20 19 19 19 18 18 18 18 18 18 18 18 18 18 17 18 18 18 18 18 18 17 17 17 17 18 18 18 18 19 19 18 18
23 22 21 21 20 20 20 19 19 19 19 19 19 18 18 18 18 18 18 17 18 17 17 17 17 17 17 17 18 17 17 17 17 17 17 17 17 17 17 18 18 18 18
23 22 21 21 20 20 19 19 19 19 19 19 18 18 18 18 18 18 17 17 17 17 17 17 17 17 17 17 17 17 17 17 17 17 17 17 17 17 17 17 17 18 19
23 22 21 21 20 20 19 19 19 19 19 18 18 18 18 18 18 17 17 17 17 17 17 17 17 17 17 17 17 17 17 17 17 17 17 17 16 16 16 16 17 17 17
23 22 21 20 20 20 19 18 18 18 18 18 18 18 18 17 17 17 17 17 17 16 17 16 16 16 16 16 17 16 16 16 16 16 16 16 16 16 16 16 16 16 16
22 21 21 20 20 19 19 18 18 18 18 18 18 18 17 17 17 17 17 17 16 16 16 16 16 16 16 16 16 16 16 16 16 16 16 16 16 16 16 16 16 16 16
21 21 20 20 19 19 18 18 18 18 18 18 17 17 17 17 17 17 17 16 16 16 16 16 16 16 16 16 16 15 15 15 15 15 15 15 15 15 15 15 15 15 15
21 21 20 19 19 19 18 18 18 18 18 17 17 17 16 16 16 16 16 16 16 16 16 16 16 16 15 15 15 15 15 15 15 15 15 15 15 15 15 15 15 15 15
21 20 20 19 19 18 18 18 18 17 17 17 16 16 16 16 16 16 16 16 16 16 16 15 15 15 15 15 15 14 14 14 14 14 14 14 14 14 14 14 14 14 14
20 20 19 19 18 18 18 17 17 17 17 16 16 16 16 16 16 15 15 15 15 15 15 15 15 14 14 15 14 14 14 14 14 14 14 14 14 14 14 14 14 14 14
20 19 19 18 18 18 17 17 17 17 16 16 16 16 16 15 15 15 15 15 15 15 15 14 14 14 14 14 14 14 14 14 14 14 14 14 14 14 14 14 14 14 14
20 19 19 18 18 17 17 17 17 16 16 16 16 16 15 15 15 15 15 15 14 14 14 14 14 14 14 14 14 14 14 13 13 13 13 13 13 13 13 13 13 13 13
19 19 18 18 17 17 17 17 16 16 16 16 15 15 15 15 15 15 15 14 14 14 14 14 14 14 14 14 14 14 13 13 13 13 13 13 13 13 13 13 13 13 13
18 18 18 17 17 17 16 16 16 16 15 15 15 15 15 15 14 14 14 14 14 14 14 13 13 13 13 14 13 13 13 13 13 13 13 13 13 13 13 13 13 13 13
18 17 17 17 16 16 16 16 16 16 15 15 15 15 15 14 14 14 14 14 14 13 13 13 13 13 13 13 13 13 13 12 13 13 13 13 13 13 13 13 12 12 12
17 17 17 16 16 16 16 16 15 15 15 15 14 14 14 14 14 14 14 13 13 13 13 13 13 13 13 13 13 13 13 12 12 12 12 13 13 13 12 12 12 12 12
16 16 16 16 16 16 15 15 15 15 15 15 14 14 14 14 13 13 13 13 13 13 13 13 13 13 13 13 13 13 13 12 12 12 12 12 12 12 12 12 12 12 12
16 16 16 15 15 15 15 15 15 15 14 14 14 14 13 13 13 13 13 13 13 12 13 13 13 13 12 12 12 12 12 12 12 12 12 12 12 12 12 12 12 12 11
15 15 15 15 15 15 15 14 14 14 14 13 13 13 13 13 13 12 12 12 12 12 12 12 12 12 12 12 12 12 12 12 11 11 11 11 11 11 11 11 11 11 11
15 15 15 14 14 14 14 14 14 14 13 13 13 13 13 12 12 12 12 12 12 12 12 12 11 11 12 11 11 11 11 11 11 11 11 11 11 11 11 11 11 11 11
Wind_Speed
6 5 5 4 4 4 4 3 2 3 2 2 1 2 2 2 3 3 4 4 3 3 2 2 3 2 3 2 2 2 2 1 1 1 1 2 3 2 2 2 1 2 2
6 6 5 5 5 4 4 3 3 3 3 2 1 1 1 1 2 2 3 3 3 2 2 2 1 2 2 2 2 1 0 1 1 1 1 2 3 3 2 2 2 1 1
7 7 6 6 5 5 4 3 3 3 3 3 2 2 2 1 2 2 2 2 2 2 2 2 1 1 1 2 1 1 1 0 1 1 2 1 0 1 2 2 1 0 0
7 7 7 6 6 5 4 4 3 3 3 3 2 2 1 1 1 1 2 2 2 2 2 1 1 0 1 1 1 1 1 2 1 1 1 2 2 2 0 2 2 1 0
6 7 7 7 6 5 5 4 4 3 3 3 3 2 1 1 1 1 2 1 2 1 1 1 1 0 0 1 1 1 2 2 2 2 1 1 1 3 2 1 0 0 1
6 6 7 7 6 6 6 5 5 4 4 4 3 2 1 1 0 0 1 1 1 1 1 1 1 0 1 0 1 1 1 2 2 2 2 1 2 2 2 2 2 1 0
6 7 7 7 6 6 5 5 5 5 4 4 3 3 2 2 2 2 1 1 0 1 1 1 1 1 0 0 0 0 1 1 1 2 1 1 2 2 2 2 2 2 2
6 7 7 6 6 5 5 5 5 5 5 4 4 3 3 2 2 2 1 1 0 1 1 0 0 0 0 1 0 1 1 1 1 1 1 1 1 1 2 2 2 3 2
7 7 7 6 6 5 5 4 4 4 4 4 4 3 2 2 1 1 1 0 0 0 1 0 0 0 0 1 1 1 1 2 2 1 2 1 1 1 2 2 3 3 3
7 7 6 6 5 5 4 4 4 4 4 4 4 3 3 2 2 2 1 0 0 1 1 1 1 1 1 1 1 2 1 1 1 0 0 1 1 1 1 2 2 3 3
7 7 6 6 5 4 4 4 4 4 4 4 3 3 2 2 2 1 1 1 1 1 1 1 1 0 1 1 2 2 2 2 1 1 1 1 1 1 1 1 1 2 2
7 7 7 6 5 4 4 4 4 4 3 3 3 3 2 2 2 1 1 1 1 1 1 1 1 1 1 1 1 2 2 2 2 2 1 2 1 1 1 1 1 1 1
7 7 7 6 5 4 4 4 4 3 3 3 2 2 2 2 2 1 1 1 1 1 1 1 1 1 0 1 1 1 2 2 2 2 2 2 1 1 1 1 2 2 2
7 7 6 6 5 4 4 4 3 3 3 3 3 2 2 2 2 2 1 1 1 1 1 1 1 1 1 1 1 1 1 1 2 2 2 2 2 2 2 2 2 2 3
7 7 6 6 5 4 4 3 3 3 3 3 2 2 2 2 2 2 2 1 1 1 1 1 1 1 1 1 1 2 2 2 2 2 3 2 1 1 3 3 2 3 4
7 7 6 6 5 5 4 4 3 3 3 2 2 2 2 2 2 2 2 2 2 1 1 2 2 2 1 2 2 2 2 3 3 3 3 3 3 3 4 3 4 4 5
7 7 6 6 5 5 5 5 4 4 3 3 2 3 3 3 3 3 3 2 2 2 2 3 2 2 1 0 1 3 3 3 3 3 3 3 2 3 4 5 7 6 6
6 6 6 5 5 5 5 4 4 4 3 3 3 3 3 3 3 3 3 3 3 3 3 3 3 3 3 2 3 4 3 3 3 4 4 4 3 3 4 5 5 5 5
5 5 5 5 4 4 5 4 4 4 3 3 3 3 4 4 4 4 4 3 4 4 4 4 4 4 4 3 4 4 3 3 4 4 4 4 4 2 4 6 6 6 5
4 4 5 5 4 4 4 4 3 3 3 3 3 3 4 4 4 4 4 4 4 5 5 4 4 4 4 3 4 5 4 4 4 4 4 4 4 3 4 6 6 6 6
4 5 4 4 4 4 4 3 3 3 3 3 3 3 3 4 4 4 4 4 5 5 4 4 4 5 5 4 5 5 4 5 5 5 4 3 3 4 5 7 7 7 7
4 4 4 4 3 3 4 3 2 2 2 3 3 3 3 3 3 4 4 4 5 5 5 5 5 4 5 4 5 5 6 6 6 5 5 3 2 4 7 7 6 7 7
3 3 4 4 3 3 3 2 1 1 2 2 2 3 3 3 4 4 5 5 5 5 5 5 5 5 4 4 6 7 6 6 5 5 4 3 5 7 7 8 8 8 7
2 3 4 4 3 2 2 1 1 1 1 2 2 3 3 3 3 4 4 5 5 5 5 5 5 5 4 4 3 4 4 5 6 5 4 7 9 8 7 6 6 6 6
1 2 3 3 2 2 2 1 1 0 1 1 2 2 2 2 3 4 4 5 5 5 6 6 5 5 5 3 2 3 4 4 4 4 5 5 4 5 5 5 5 5 5
1 1 2 2 1 1 1 1 0 0 1 2 2 2 2 2 3 3 3 2 4 3 5 6 6 5 3 2 3 4 5 4 4 5 6 6 6 6 6 6 6 6 6
Wind_Direction
172 172 171 169 160 151 149 145 131 124 128 124 120 101 90 85 84 75 70 73 74 81 62 82 99 94 96 107 128 132 148 145 130 150 142 145 145 137 135 141 157 149 156
172 174 177 173 170 165 165 160 153 144 149 133 126 112 80 83 84 79 82 74 77 85 103 87 109 89 115 118 117 143 147 136 179 286 249 179 155 164 131 143 157 155 159
183 178 178 178 173 173 175 168 159 153 155 155 156 139 137 143 117 102 97 79 84 90 80 100 77 92 146 122 161 198 218 228 212 275 294 294 49 88 133 124 116 78 11
186 178 175 178 176 173 168 164 160 157 158 171 169 168 159 128 84 85 88 89 91 92 101 108 103 58 61 106 233 91 275 269 264 238 295 318 338 290 193 149 122 134 176
185 179 176 170 171 167 162 156 155 154 158 168 166 189 181 159 124 96 87 76 80 77 72 71 83 78 51 32 344 337 300 285 297 310 297 264 233 249 257 262 305 79 73
178 175 167 163 167 168 169 161 158 156 158 165 167 182 179 186 143 100 112 144 115 97 76 67 63 120 40 50 309 308 295 312 321 310 299 272 272 254 244 244 240 272 354
171 170 166 166 169 171 174 167 164 165 164 166 169 179 189 186 194 231 199 246 147 102 71 57 69 44 17 261 271 281 313 282 274 278 283 299 305 298 279 262 263 272 254
166 166 165 165 168 171 174 170 169 168 168 172 173 179 191 203 202 226 247 238 275 65 62 74 101 16 302 274 241 248 248 247 251 261 285 278 292 291 277 278 277 275 265
162 163 162 159 162 166 165 168 169 170 175 177 175 182 197 219 207 201 231 231 298 176 118 231 217 242 261 258 233 255 250 236 237 223 217 243 252 271 270 269 276 282 286
159 156 156 156 161 159 156 161 167 173 178 181 191 183 192 197 197 213 211 331 334 331 253 251 240 245 247 239 223 210 212 212 211 236 283 274 261 274 273 288 290 286 289
162 157 154 153 152 153 156 164 165 168 178 187 191 188 189 183 189 196 202 185 219 233 238 243 245 275 284 254 227 215 195 202 206 209 196 233 298 278 286 279 277 276 285
164 159 155 155 158 159 163 168 169 172 180 183 188 189 190 189 199 188 202 212 218 222 222 233 238 237 242 244 223 219 207 207 210 213 210 225 203 222 284 288 282 281 284
161 159 162 164 167 166 168 170 176 181 188 187 191 191 202 198 205 209 206 214 227 234 225 219 233 246 239 230 223 221 226 221 219 219 215 225 219 231 248 262 265 265 258
165 163 165 167 170 174 175 178 182 187 191 196 203 205 215 219 225 231 235 236 237 244 253 247 235 214 229 230 232 232 243 242 235 229 231 232 234 240 247 239 250 263 266
169 167 170 171 177 180 182 184 185 188 192 201 211 212 220 219 234 238 232 230 240 240 242 257 259 249 236 232 250 245 243 247 241 231 227 219 221 288 278 277 271 264 264
177 175 174 175 184 190 193 192 195 196 195 202 213 215 218 223 228 231 225 226 239 252 239 248 255 257 259 60 10 288 258 253 249 239 229 218 204 211 218 250 271 276 266
180 181 185 188 192 196 196 195 194 196 197 203 214 217 221 225 230 234 231 232 237 243 245 246 247 243 240 214 268 276 267 256 253 251 248 253 232 223 246 224 221 233 244
180 182 186 187 186 186 188 188 185 190 197 209 221 224 224 228 234 236 235 236 237 240 244 246 246 244 235 221 240 258 248 256 254 246 243 245 256 260 273 269 255 249 242
184 180 181 177 171 176 179 182 187 189 202 217 229 234 233 235 236 238 240 241 239 239 240 242 243 243 243 230 235 255 244 245 249 248 246 248 251 273 275 264 261 257 255
174 175 173 168 164 166 167 175 182 194 215 230 238 240 240 241 241 240 244 245 241 241 245 246 250 251 251 231 232 254 251 251 251 243 235 229 242 259 260 256 259 261 263
163 163 162 162 163 167 171 179 190 209 227 234 240 241 246 247 244 246 248 248 248 250 251 252 252 250 249 222 216 242 252 259 256 255 254 241 186 226 248 257 256 262 268
154 157 160 155 155 163 170 173 195 225 228 232 238 248 254 258 252 246 250 250 250 248 246 246 251 247 240 233 220 221 246 274 261 262 264 257 181 227 244 248 251 257 257
146 155 156 154 155 160 163 174 199 235 233 238 248 260 267 267 262 249 245 244 241 249 253 251 252 253 250 222 201 212 233 253 255 266 284 271 246 241 240 233 234 242 246
150 164 161 155 152 153 156 170 183 243 234 243 256 259 263 266 263 260 253 253 253 255 257 256 258 260 253 249 237 234 234 231 244 258 243 222 230 239 253 248 234 240 247
168 174 167 158 155 140 135 141 157 223 256 266 272 270 261 265 270 263 263 260 262 261 266 267 265 266 263 268 308 278 265 267 270 274 264 259 254 251 252 254 250 243 241
157 154 159 155 156 142 124 104 110 204 265 270 279 283 280 272 268 273 278 256 259 255 252 263 270 273 273 265 258 261 270 275 268 260 258 261 262 262 261 259 257 250 246
Height
1523 1524 1525 1526 1526 1526 1526 1527 1527 1527 1527 1528 1529 1529 1530 1530 1530 1530 1529 1529 1529 1529 1529 1530 1530 1530 1531 1530 1531 1531 1531 1532 1532 1533 1533 1533 1533 1533 1533 1533 1533 1533 1533
1522 1523 1524 1525 1525 1526 1526 1527 1527 1527 1528 1528 1529 1529 1530 1530 1530 1530 1530 1530 1530 1530 1531 1530 1531 1531 1530 1530 1531 1531 1532 1532 1532 1533 1533 1533 1534 1533 1533 1533 1532 1533 1533
1520 1522 1523 1524 1525 1525 1526 1527 1527 1527 1528 1528 1529 1530 1530 1531 1531 1531 1531 1530 1530 1530 1530 1530 1531 1531 1531 1531 1530 1531 1531 1532 1532 1532 1533 1532 1531 1533 1533 1532 1532 1532 1532
1517 1520 1521 1522 1524 1524 1525 1526 1526 1527 1527 1528 1529 1530 1530 1531 1531 1531 1531 1531 1531 1531 1531 1531 1530 1531 1531 1530 1531 1531 1531 1531 1531 1531 1531 1532 1532 1532 1532 1532 1531 1531 1531
1515 1518 1520 1521 1522 1524 1525 1525 1526 1526 1527 1527 1528 1529 1530 1531 1531 1531 1530 1530 1530 1530 1531 1530 1530 1530 1530 1530 1529 1530 1530 1530 1531 1531 1531 1530 1530 1531 1531 1530 1531 1531 1530
1514 1516 1518 1520 1521 1523 1524 1525 1525 1526 1526 1527 1527 1528 1529 1529 1530 1530 1530 1530 1530 1530 1530 1530 1529 1529 1529 1529 1528 1528 1529 1529 1528 1529 1529 1530 1530 1530 1530 1529 1529 1529 1530
1512 1515 1517 1519 1520 1522 1523 1524 1524 1525 1525 1526 1527 1527 1528 1528 1529 1529 1530 1530 1530 1529 1528 1529 1528 1528 1527 1527 1527 1527 1527 1527 1527 1527 1528 1528 1528 1528 1528 1528 1528 1528 1528
1511 1513 1516 1517 1519 1521 1522 1523 1523 1524 1525 1525 1525 1526 1526 1528 1528 1528 1528 1529 1529 1528 1527 1527 1527 1526 1526 1526 1525 1526 1526 1526 1526 1526 1526 1526 1526 1526 1527 1527 1527 1526 1526
1510 1512 1515 1516 1518 1520 1520 1521 1522 1523 1523 1524 1524 1525 1525 1526 1526 1526 1526 1527 1526 1526 1526 1525 1525 1524 1524 1524 1523 1524 1523 1524 1524 1525 1524 1524 1525 1525 1525 1525 1525 1526 1524
1509 1511 1514 1515 1517 1518 1519 1520 1521 1521 1522 1523 1523 1524 1524 1524 1524 1525 1525 1525 1524 1524 1524 1523 1523 1522 1522 1522 1522 1522 1522 1522 1522 1522 1522 1522 1523 1523 1523 1523 1523 1523 1524
1508 1510 1512 1514 1516 1517 1518 1519 1520 1520 1521 1521 1522 1522 1522 1523 1523 1523 1523 1523 1523 1522 1522 1521 1521 1520 1520 1520 1519 1520 1520 1520 1520 1520 1520 1520 1520 1521 1521 1521 1521 1521 1521
1507 1509 1511 1513 1515 1516 1517 1518 1518 1519 1520 1520 1520 1521 1521 1521 1521 1522 1522 1521 1521 1521 1520 1519 1519 1518 1518 1518 1518 1518 1518 1518 1518 1518 1518 1519 1519 1519 1519 1519 1519 1519 1518
1506 1508 1510 1512 1513 1515 1515 1516 1517 1518 1518 1519 1519 1519 1520 1520 1520 1520 1520 1520 1519 1519 1518 1518 1517 1516 1516 1516 1516 1516 1516 1516 1516 1516 1516 1517 1517 1517 1517 1516 1517 1517 1517
1504 1506 1508 1510 1512 1513 1514 1514 1515 1516 1517 1517 1517 1517 1517 1517 1517 1517 1517 1517 1517 1517 1516 1516 1515 1514 1514 1514 1514 1514 1514 1513 1513 1513 1514 1514 1514 1514 1514 1515 1514 1514 1514
1503 1505 1507 1508 1510 1511 1512 1512 1513 1514 1514 1515 1515 1515 1516 1514 1515 1515 1515 1515 1515 1515 1514 1514 1513 1513 1512 1512 1512 1512 1512 1511 1511 1511 1511 1512 1511 1512 1512 1513 1512 1512 1512
1501 1503 1505 1507 1508 1509 1510 1510 1511 1511 1512 1513 1513 1514 1513 1513 1513 1513 1513 1513 1513 1512 1512 1511 1511 1510 1511 1510 1509 1509 1509 1509 1508 1508 1508 1509 1509 1509 1509 1509 1508 1509 1509
1499 1501 1503 1504 1505 1507 1507 1508 1509 1509 1510 1510 1511 1511 1511 1511 1511 1512 1512 1511 1510 1510 1509 1509 1509 1508 1507 1507 1507 1507 1506 1506 1506 1506 1506 1507 1507 1506 1506 1505 1505 1505 1505
1497 1499 1501 1503 1504 1505 1506 1506 1507 1507 1508 1508 1508 1509 1509 1509 1509 1509 1509 1508 1508 1508 1507 1507 1506 1505 1505 1505 1504 1504 1504 1503 1503 1503 1503 1503 1503 1503 1503 1502 1502 1502 1502
1496 1497 1499 1500 1501 1502 1503 1504 1504 1505 1505 1506 1506 1506 1506 1506 1506 1506 1506 1506 1505 1505 1505 1504 1504 1503 1502 1502 1502 1501 1501 1501 1501 1501 1500 1500 1500 1500 1499 1499 1499 1498 1498
1494 1496 1497 1498 1499 1500 1500 1501 1501 1502 1502 1503 1503 1503 1503 1503 1503 1503 1503 1502 1502 1502 1502 1501 1501 1501 1500 1499 1499 1498 1499 1499 1498 1498 1497 1497 1496 1496 1496 1495 1495 1495 1494
1492 1493 1495 1496 1497 1497 1498 1498 1498 1499 1499 1500 1500 1500 1500 1500 1500 1499 1499 1499 1499 1499 1499 1498 1498 1498 1497 1496 1496 1496 1496 1496 1495 1495 1494 1493 1492 1492 1491 1491 1491 1491 1490
1491 1491 1492 1493 1494 1495 1495 1495 1496 1496 1497 1497 1497 1497 1497 1496 1496 1495 1495 1495 1495 1495 1495 1494 1494 1494 1494 1493 1493 1493 1492 1492 1491 1491 1491 1490 1488 1488 1487 1487 1486 1486 1486
1489 1490 1490 1491 1492 1492 1493 1493 1493 1494 1494 1493 1493 1493 1493 1492 1492 1492 1491 1491 1491 1492 1491 1491 1491 1491 1491 1490 1489 1489 1488 1487 1487 1486 1486 1485 1484 1483 1483 1483 1482 1482 1482
1487 1488 1489 1489 1490 1490 1490 1491 1491 1491 1491 1491 1490 1490 1490 1489 1488 1488 1488 1488 1488 1488 1488 1488 1487 1487 1487 1486 1486 1485 1484 1484 1483 1482 1481 1481 1480 1480 1479 1479 1478 1478 1478
1486 1487 1487 1487 1487 1488 1488 1489 1489 1489 1488 1488 1488 1487 1487 1486 1485 1485 1484 1484 1484 1485 1484 1484 1484 1483 1483 1482 1482 1481 1481 1480 1480 1479 1478 1478 1477 1476 1476 1475 1475 1474 1474
1484 1485 1485 1485 1486 1486 1486 1486 1486 1486 1486 1486 1486 1485 1485 1484 1483 1482 1481 1480 1481 1480 1480 1480 1479 1478 1478 1478 1477 1477 1477 1476 1476 1475 1475 1474 1473 1473 1472 1472 1471 1470 1470